Location: Aula-Vintri
(58.3875°N, 22.4322°E)
Time: 07:00:21
(UTC+00:00)

Cosmos 2285 Rocket - Pass Details

Date: 13 October 2019
Orbit: 970 x 999 km, 74.0° (Epoch: 11 November)

Event Time Altitude Azimuth Distance (km) Brightness Sun altitude
Rises 16:08:19 0° 328° (NNW) 3,736 7.4 -5.6°
Reaches altitude 10° 16:10:53 10° 329° (NNW) 2,783 6.8 -5.9°
Maximum altitude 16:17:22 89° 54° (NE) 1,008 4.1 -6.8°
Drops below altitude 10° 16:23:49 10° 151° (SSE) 2,761 6.1 -7.6°
Sets 16:26:21 0° 152° (SSE) 3,704 6.8 -8.0°
